Find Starlink 34401

NORAD ID: 64757 Int'l Des: 2025-147 Owner: SPXS Country: US Constellation: starlink operational
LEOCIRCULAR

Current View

Loading 3D Globe...

About Starlink 34401

Description loading...

Upcoming Passes

Passes for default location (London). Set your location on the main map for personalized predictions.

Altitude History

Loading altitude history...

Two-Line Element Set

1 64757U 25147C 26151.06077149 .00037250 00000-0 11079-2 0 9994
2 64757 53.1593 219.4067 0001506 120.2068 239.9083 15.34405826 51308
Epoch: May 31, 2026 • Age: 12 hours

Current Status

Altitude 462.0 km
Velocity 7.64 km/s
Sub-Earth Point 13.81°N, 59.06°W
Launch Date Jul 8, 2025
Age 0.8 years
Type internet

Technical Details

Classification Payload
Mass 575.00 kg
Dry Mass 530.00 kg
Total Mass 575.00 kg
Length 0.30 m
Diameter 4.10 m
Span 29.00 m
Shape Box + pan
Manufacturer SPXS
Bus Type Starlink V2MO
Phase Status In Orbit
Owner/State SPXS/US

Most Searched